Flag for U.S.A. Weather past 2 weeks in Jefferson City, Missouri, U.S.A.

Now
72 °F

Low clouds.


Feels Like: 68 °F
Forecast: 69 / 85 °F
Wind: No wind

Location: Jefferson City Memorial Airport

Current Time: Sep 1, 2014 at 11:36:23 PM

Latest Report: Sep 1, 2014 at 10:53 PM


Visibility: 10 mi

Pressure: 29.86 "Hg

Humidity: 93%

Dew point: 70 °F

Location of Jefferson CityLocation

Historic Weather in Jefferson City — Graph

°F

Jefferson City temperature yesterday

Maximum temperature yesterday: 93 °F (at 4:53 PM)
Minimum temperature yesterday: 68 °F (at 4:53 AM)
Average temperature yesterday: 80 °F

Past Weeks' High & Low Weather Summary

 TemperatureHumidityPressure
High97 °F (Aug 22, 5:53 PM)100% (Aug 19, 5:53 AM)30.06 "Hg (Aug 19, 5:53 AM)
Low66 °F (Aug 19, 5:53 AM)36% (Aug 24, 3:53 PM)29.73 "Hg (Aug 19, 6:53 PM)
Average80 °F72%29.89 "Hg
* Reported Aug 17 9:53 PM — Sep 1 9:53 PM, Jefferson City, Weather by CustomWeather, © 2014

Note: Actual official high and low records may vary slightly from our data, if they occured in-between our weather recording intervals... More about our weather records

Advertising

Jefferson City weather history for previous 24 hours

 ConditionsComfort  
Time TempWeatherWind HumidityBarometerVisibility
9:53 PM
Sep 1
72 °FLight rain. Overcast.No wind93%29.85 "Hg10 mi
8:53 PM73 °FMostly cloudy.5 mph90%29.83 "Hg10 mi
7:53 PM72 °FLight rain. Mostly cloudy.3 mph91%29.82 "Hg10 mi
6:53 PM76 °FLight rain. Overcast.7 mph80%29.82 "Hg10 mi
6:04 PM79 °FThunderstorms. Overcast.3 mph72%29.86 "Hg10 mi
5:53 PM80 °FOvercast.5 mph67%29.82 "Hg10 mi
4:53 PM82 °FOvercast.3 mph56%29.84 "Hg10 mi
3:53 PM85 °FPassing clouds.7 mph53%29.84 "Hg10 mi
2:53 PM84 °FSunny.8 mph53%29.84 "Hg10 mi
1:53 PM82 °FSunny.14 mph58%29.85 "Hg10 mi
12:53 PM78 °FSunny.10 mph64%29.85 "Hg10 mi
11:53 AM74 °FSunny.10 mph71%29.87 "Hg10 mi
10:53 AM73 °FSunny.10 mph74%29.84 "Hg10 mi
9:53 AM72 °FPassing clouds.9 mph71%29.81 "Hg10 mi
8:53 AM69 °FSunny.9 mph81%29.78 "Hg10 mi
7:53 AM67 °FPartly sunny.10 mph90%29.80 "Hg10 mi
6:53 AM68 °FRain. Fog.7 mph90%29.88 "Hg6 mi
5:53 AM68 °FThundershowers. Overcast.8 mph90%29.93 "Hg10 mi
4:53 AM70 °FMostly cloudy.9 mph84%29.88 "Hg10 mi
3:53 AM70 °FPassing clouds.No wind84%29.84 "Hg10 mi
2:53 AM71 °FPassing clouds.3 mph78%29.83 "Hg10 mi
2:01 AM76 °FMostly cloudy.18 mph62%29.91 "Hg10 mi
12:53 AM80 °FClear.6 mph69%29.84 "Hg10 mi
11:53 PM
Aug 31
81 °FClear.7 mph67%29.77 "Hg10 mi
Weather by CustomWeather, © 2014

See weather overviewHow to use our weather pages